Tracking 31027 objects as of 19-Jul-2025
HD Live streaming from Space Station
objects crossing your sky now

DMSP 5D-2 F13 DEB

Track DMSP 5D-2 F13 DEB now!
10-day predictions


NORAD ID: 40500
Int'l Code: 1995-015CP
Perigee: 669.1 km
Apogee: 690.9 km
Inclination: 98.8 °
Period: 98.2 minutes
Semi major axis: 7051 km
RCS: Unknown
Launch date: March 24, 1995
Source: United States (US)
Launch site: AIR FORCE WESTERN TEST RANGE (AFWTR)

Note: This is SATELLITE DEBRIS
Your satellite tracking list
STARLINK-3349
Track 1 satellite(s)




NASA's NSSDC Master Catalog

Two Line Element Set (TLE):
1 40500U 95015CP  25199.43345960  .00018845  00000-0  34106-2 0  9991
2 40500  98.7981 262.9274 0015498 115.0236 245.2577 14.66309985537109
Source of the keplerian elements: AFSPC